GAOFEN 1-03 (43260 NORAD) Tracking and Keplerian Element Data

This shows tracking and keplerian element data for the satellite.

Feedback or suggestion? Click here.




ElementValue
Catalog43260
NameGAOFEN 1-03
Epoch Orbit6187
Epoch Day144.4715866
Epoch Year2019
RAAN222.3726
Inclination97.996
Eccentricity0.0006685
Argument of Perigee82.939
Mean Anonmoly277.2583
Mean Motion14.76430901
Decay Rate8.4E-07
L11 43260U 18031B 19144.47158660 .00000084 00000-0 19379-4 0 9999
L22 43260 97.9960 222.3726 0006685 82.9390 277.2583 14.76430901 61878

Live tracking and technical data element details for GAOFEN 1-03 (NORAD 43260). GAOFEN 1-03 can be tracked NOW for your location showing map with azimuth and elevation plus other details from your city location.

Track the satellite on the map from your city or location and see movement details for azimuth, elevation, latitude, longitude, range, height, and movement on the map or in text.







IsCatalogInMostPopularTable: catalog: 43260, numindb: 137
Update: records affected: 1



GetName: 43260 GAOFEN 1-03

Hit Count: updated at: Fri, 24 May 2019 20:51:54 GMT